W5TTY Weather Reports


Display with metric or nautical units.
time (UTC)temp
F
wind
direction
speed
MPH
gust
MPH
rain 1hr
in
rain 24hr
in
rain mn
in
humidity
%
barometer
mb
20260901230822 95 126 7.0 11.0 0.00 0.00 0.00 52 1012.1
20260901230327 95 80 4.0 11.0 0.00 0.00 0.00 52 1012.1
20260901225836 95 90 5.0 12.0 0.00 0.00 0.00 52 1012.1
20260901225322 95 113 7.0 13.0 0.00 0.00 0.00 52 1012.1
20260901224827 95 84 7.0 11.0 0.00 0.00 0.00 52 1012.1
20260901224334 95 80 5.0 11.0 0.00 0.00 0.00 52 1012.1
20260901223819 95 63 4.0 10.0 0.00 0.00 0.00 52 1012.2
20260901223322 95 126 2.0 7.0 0.00 0.00 0.00 52 1012.2
20260901222831 95 74 3.0 4.0 0.00 0.00 0.00 52 1012.3
20260901222318 95 73 3.0 5.0 0.00 0.00 0.00 52 1012.3
20260901221824 95 72 3.0 7.0 0.00 0.00 0.00 52 1012.2
20260901221351 95 92 4.0 7.0 0.00 0.00 0.00 52 1012.3
20260901220837 95 65 4.0 9.0 0.00 0.00 0.00 53 1012.3
20260901220323 95 75 4.0 9.0 0.00 0.00 0.00 53 1012.3
20260901215855 95 51 5.0 9.0 0.00 0.00 0.00 53 1012.3
20260901215320 95 55 5.0 9.0 0.00 0.00 0.00 53 1012.3
20260901214827 95 38 3.0 9.0 0.00 0.00 0.00 53 1012.4
20260901214332 95 49 4.0 12.0 0.00 0.00 0.00 53 1012.4
20260901213821 95 51 8.0 12.0 0.00 0.00 0.00 53 1012.4
20260901213328 95 49 7.0 12.0 0.00 0.00 0.00 54 1012.4
20260901212832 96 121 6.0 12.0 0.00 0.00 0.00 54 1012.4
20260901212319 96 111 6.0 15.0 0.00 0.00 0.00 54 1012.4
20260901211826 96 55 5.0 14.0 0.00 0.00 0.00 54 1012.4
20260901211326 96 60 6.0 15.0 0.00 0.00 0.00 55 1012.5
20260901210834 97 77 9.0 15.0 0.00 0.00 0.00 55 1012.5
20260901210345 97 93 9.0 15.0 0.00 0.00 0.00 56 1012.5
20260901205847 97 32 6.0 16.0 0.00 0.00 0.00 56 1012.6
20260901205350 97 69 7.0 16.0 0.00 0.00 0.00 56 1012.8
20260901204835 96 87 6.0 13.0 0.00 0.00 0.00 57 1012.8
20260901204347 96 69 9.0 15.0 0.00 0.00 0.00 57 1013.1
20260901203820 96 96 8.0 17.0 0.00 0.00 0.00 57 1013.1
20260901203333 97 41 10.0 17.0 0.00 0.00 0.00 58 1013.2
20260901202837 96 65 6.0 15.0 0.00 0.00 0.00 59 1013.2
20260901202321 96 107 4.0 16.0 0.00 0.00 0.00 59 1013.4
20260901201845 96 85 8.0 16.0 0.00 0.00 0.00 59 1013.5
20260901201328 96 85 7.0 14.0 0.00 0.00 0.00 60 1013.6
20260901200839 96 104 8.0 18.0 0.00 0.00 0.00 61 1013.6
20260901200341 95 69 9.0 18.0 0.00 0.00 0.00 61 1013.5
20260901195824 95 69 6.0 16.0 0.00 0.00 0.00 61 1013.5
20260901195325 95 54 7.0 16.0 0.00 0.00 0.00 61 1013.5
20260901194835 94 104 4.0 10.0 0.00 0.00 0.00 62 1013.6
20260901194343 94 80 5.0 10.0 0.00 0.00 0.00 62 1013.6
20260901193825 94 63 7.0 10.0 0.00 0.00 0.00 62 1013.7
20260901193329 94 59 5.0 8.0 0.00 0.00 0.00 63 1013.7
20260901192835 94 41 3.0 10.0 0.00 0.00 0.00 63 1013.8
20260901192321 94 61 3.0 13.0 0.00 0.00 0.00 64 1013.7
20260901191843 94 19 7.0 13.0 0.00 0.00 0.00 64 1013.7
20260901191349 94 119 5.0 12.0 0.00 0.00 0.00 65 1013.7
20260901190831 94 144 3.0 13.0 0.00 0.00 0.00 66 1013.8
20260901190336 93 101 6.0 14.0 0.00 0.00 0.00 66 1014.0
20260901185822 93 55 8.0 14.0 0.00 0.00 0.00 66 1013.9
20260901185327 92 53 8.0 14.0 0.00 0.00 0.00 67 1014.1
20260901184826 92 52 8.0 12.0 0.00 0.00 0.00 67 1014.2
20260901184403 92 105 7.0 10.0 0.00 0.00 0.00 67 1014.2
20260901183825 93 53 2.0 10.0 0.00 0.00 0.00 68 1014.4
20260901183347 92 30 4.0 8.0 0.00 0.00 0.00 68 1014.5
20260901182858 92 66 1.0 12.0 0.00 0.00 0.00 69 1014.5
20260901182321 92 5 7.0 12.0 0.00 0.00 0.00 69 1014.8
20260901181827 92 5 6.0 12.0 0.00 0.00 0.00 69 1014.8
20260901181332 92 360 6.0 12.0 0.00 0.00 0.00 69 1014.9
20260901180820 93 64 4.0 10.0 0.00 0.00 0.00 70 1015.0
20260901180327 92 81 5.0 11.0 0.00 0.00 0.00 71 1015.0
20260901175836 92 52 6.0 14.0 0.00 0.00 0.00 71 1015.2
20260901175340 92 42 8.0 14.0 0.00 0.00 0.00 72 1015.3
20260901174821 92 40 3.0 12.0 0.00 0.00 0.00 72 1015.4
20260901174329 92 94 7.0 14.0 0.00 0.00 0.00 73 1015.5
20260901173336 91 92 8.0 13.0 0.00 0.00 0.00 74 1015.6
20260901172824 90 87 9.0 13.0 0.00 0.00 0.00 74 1015.7
20260901172326 90 76 9.0 13.0 0.00 0.00 0.00 74 1015.6
20260901171830 90 83 7.0 11.0 0.00 0.00 0.00 74 1015.8
20260901171334 91 69 4.0 8.0 0.00 0.00 0.00 75 1015.9
20260901170820 91 343 3.0 10.0 0.00 0.00 0.00 75 1015.9
20260901170332 91 78 5.0 9.0 0.00 0.00 0.00 76 1016.0
20260901165838 90 53 3.0 10.0 0.00 0.00 0.00 76 1016.1
20260901165342 90 71 6.0 13.0 0.00 0.00 0.00 77 1016.1
20260901164848 90 50 2.0 14.0 0.00 0.00 0.00 77 1016.1
20260901164329 90 91 5.0 14.0 0.00 0.00 0.00 77 1016.1
20260901163904 90 347 2.0 11.0 0.00 0.00 0.00 78 1016.1
20260901163329 89 13 5.0 11.0 0.00 0.00 0.00 79 1016.2
20260901162847 89 67 3.0 8.0 0.00 0.00 0.00 78 1016.2
20260901162327 89 86 3.0 10.0 0.00 0.00 0.00 78 1016.3
20260901161833 89 54 4.0 9.0 0.00 0.00 0.00 79 1016.3
20260901161344 89 133 2.0 9.0 0.00 0.00 0.00 79 1016.3
20260901160827 88 96 4.0 8.0 0.00 0.00 0.00 80 1016.3
20260901160328 88 101 4.0 8.0 0.00 0.00 0.00 80 1016.5
20260901155834 88 263 2.0 8.0 0.00 0.00 0.00 80 1016.4
20260901155336 87 336 4.0 8.0 0.00 0.00 0.00 80 1016.4
20260901154821 87 346 2.0 6.0 0.00 0.00 0.00 81 1016.4
20260901154326 87 63 1.0 8.0 0.00 0.00 0.00 80 1016.4
20260901153828 87 34 5.0 8.0 0.00 0.00 0.00 80 1016.5
20260901153333 87 34 2.0 6.0 0.00 0.00 0.00 81 1016.5
20260901152819 87 37 4.0 6.0 0.00 0.00 0.00 81 1016.5
20260901152349 86 360 3.0 6.0 0.00 0.00 0.00 81 1016.4
20260901151829 86 273 0.0 5.0 0.00 0.00 0.00 81 1016.4
20260901151335 86 306 3.0 7.0 0.00 0.00 0.00 81 1016.4
20260901150820 85 341 1.0 6.0 0.00 0.00 0.00 81 1016.4
20260901150322 85 167 1.0 6.0 0.00 0.00 0.00 81 1016.4
20260901145855 84 280 3.0 7.0 0.00 0.00 0.00 81 1016.4
20260901145356 84 347 1.0 4.0 0.00 0.00 0.00 81 1016.5
20260901144819 84 298 2.0 6.0 0.00 0.00 0.00 81 1016.5
20260901144322 84 296 3.0 8.0 0.00 0.00 0.00 81 1016.5
20260901143830 84 306 2.0 8.0 0.00 0.00 0.00 81 1016.6
20260901143334 83 306 2.0 6.0 0.00 0.00 0.00 81 1016.6
20260901142841 83 348 2.0 6.0 0.00 0.00 0.00 80 1016.7
20260901142321 83 43 2.0 5.0 0.00 0.00 0.00 81 1016.7
20260901141830 82 310 2.0 5.0 0.00 0.00 0.00 80 1016.7
20260901141334 82 305 2.0 5.0 0.00 0.00 0.00 80 1016.6
20260901140838 81 35 2.0 4.0 0.00 0.00 0.00 80 1016.6
20260901140323 81 360 1.0 4.0 0.00 0.00 0.00 80 1016.7
20260901135830 80 5 1.0 4.0 0.00 0.00 0.00 80 1016.7
20260901135330 80 49 1.0 3.0 0.00 0.00 0.00 80 1016.7
20260901134833 80 49 0.0 3.0 0.00 0.00 0.00 79 1016.7
20260901134317 79 50 0.0 3.0 0.00 0.00 0.00 79 1016.8
20260901133823 79 50 0.0 3.0 0.00 0.00 0.00 79 1016.8
20260901133325 78 50 1.0 2.0 0.00 0.00 0.00 79 1016.8
20260901132838 78 50 0.0 3.0 0.00 0.00 0.00 79 1016.8
20260901132343 78 50 1.0 4.0 0.00 0.00 0.00 79 1016.8
20260901131827 77 51 1.0 4.0 0.00 0.00 0.00 78 1016.8
20260901131329 77 51 1.0 3.0 0.00 0.00 0.00 78 1016.7
20260901125906 76 40 2.0 3.0 0.00 0.00 0.00 78 1016.5
20260901125325 75 35 1.0 3.0 0.00 0.00 0.00 78 1016.5
20260901124828 75 21 1.0 3.0 0.00 0.00 0.00 77 1016.4
20260901124333 75 21 1.0 3.0 0.00 0.00 0.00 77 1016.3
20260901123819 75 21 2.0 4.0 0.00 0.00 0.00 77 1016.3
20260901123321 74 22 3.0 4.0 0.00 0.00 0.00 77 1016.2
20260901122856 74 32 1.0 3.0 0.00 0.00 0.00 76 1016.3
20260901122318 75 32 0.0 0.0 0.00 0.00 0.00 76 1016.2
20260901121826 75 32 0.0 0.0 0.00 0.00 0.00 76 1016.1
20260901121330 75 32 0.0 0.0 0.00 0.00 0.00 76 1016.0
20260901120837 75 32 0.0 0.0 0.00 0.00 0.00 76 1016.0
20260901120343 75 32 0.0 0.0 0.00 0.00 0.00 76 1015.9
20260901115855 75 133 0.0 0.0 0.00 0.00 0.00 75 1015.9
20260901115317 75 135 0.0 0.0 0.00 0.00 0.00 75 1015.8
20260901114821 75 135 0.0 0.0 0.00 0.00 0.00 75 1015.7
20260901114326 75 135 0.0 0.0 0.00 0.00 0.00 75 1015.7
20260901113835 75 135 0.0 0.0 0.00 0.00 0.00 75 1015.6
20260901113340 75 136 0.0 0.0 0.00 0.00 0.00 75 1015.6
20260901112834 75 136 0.0 0.0 0.00 0.00 0.00 75 1015.5
20260901112341 75 136 0.0 0.0 0.00 0.00 0.00 75 1015.5
20260901111827 75 136 0.0 0.0 0.00 0.00 0.00 75 1015.6
20260901111334 75 135 0.0 0.0 0.00 0.00 0.00 74 1015.5
20260901110822 75 135 0.0 0.0 0.00 0.00 0.00 74 1015.3
20260901110327 76 135 0.0 0.0 0.00 0.00 0.00 74 1015.4
20260901105903 76 135 0.0 0.0 0.00 0.00 0.00 74 1015.4
20260901033342 86 143 3.0 7.0 0.00 0.00 0.00 57 1014.4
20260901032828 86 131 3.0 7.0 0.00 0.00 0.00 56 1014.4
20260901032401 86 140 3.0 8.0 0.00 0.00 0.00 56 1014.4
20260901031843 86 114 4.0 8.0 0.00 0.00 0.00 56 1014.3
20260901031354 87 141 3.0 8.0 0.00 0.00 0.00 56 1014.3
20260901030839 87 132 3.0 6.0 0.00 0.00 0.00 55 1014.3
20260901030334 87 183 2.0 6.0 0.00 0.00 0.00 55 1014.1
20260901025822 87 180 3.0 6.0 0.00 0.00 0.00 55 1014.1
20260901025325 87 181 2.0 8.0 0.00 0.00 0.00 54 1014.0
20260901024837 87 144 4.0 10.0 0.00 0.00 0.00 54 1014.0
20260901024323 88 130 3.0 10.0 0.00 0.00 0.00 54 1013.9
20260901023827 88 140 4.0 9.0 0.00 0.00 0.00 53 1013.8
20260901023338 88 121 4.0 8.0 0.00 0.00 0.00 53 1013.8
20260901022824 88 115 3.0 10.0 0.00 0.00 0.00 53 1013.7
20260901022329 88 123 4.0 10.0 0.00 0.00 0.00 52 1013.5
20260901021832 88 103 4.0 9.0 0.00 0.00 0.00 52 1013.5
20260901021317 89 137 3.0 9.0 0.00 0.00 0.00 52 1013.4
20260901020830 89 180 3.0 9.0 0.00 0.00 0.00 51 1013.4
20260901020337 89 144 4.0 9.0 0.00 0.00 0.00 51 1013.3
20260901015829 89 155 3.0 8.0 0.00 0.00 0.00 51 1013.3
20260901015332 89 150 3.0 9.0 0.00 0.00 0.00 50 1013.3
20260901014817 89 142 5.0 9.0 0.00 0.00 0.00 50 1013.2
20260901014333 90 168 6.0 14.0 0.00 0.00 0.00 49 1013.2
20260901013839 90 140 5.0 14.0 0.00 0.00 0.00 49 1013.3
20260901013331 90 148 6.0 12.0 0.00 0.00 0.00 49 1013.3
20260901012837 91 198 3.0 13.0 0.00 0.00 0.00 48 1013.3
20260901012324 91 154 7.0 13.0 0.00 0.00 0.00 48 1013.3
20260901011829 92 150 8.0 13.0 0.00 0.00 0.00 48 1013.3
20260901011342 92 132 9.0 16.0 0.00 0.00 0.00 47 1013.2
20260901010834 93 150 9.0 18.0 0.00 0.00 0.00 47 1013.2
20260901010340 93 121 9.0 17.0 0.00 0.00 0.00 47 1013.1
20260901005831 94 134 8.0 19.0 0.00 0.00 0.00 47 1013.1
20260901005333 94 146 5.0 10.0 0.00 0.00 0.00 47 1013.0
20260901004851 94 120 2.0 8.0 0.00 0.00 0.00 47 1012.8
20260901004359 94 136 3.0 8.0 0.00 0.00 0.00 47 1012.8
20260901003825 95 134 4.0 9.0 0.00 0.00 0.00 47 1012.7
20260901003333 95 122 5.0 9.0 0.00 0.00 0.00 47 1012.7
20260901002822 95 126 3.0 8.0 0.00 0.00 0.00 47 1012.8
20260901002333 96 109 2.0 7.0 0.00 0.00 0.00 47 1012.8
20260901001819 96 121 3.0 7.0 0.00 0.00 0.00 47 1012.8
20260901001321 96 130 3.0 7.0 0.00 0.00 0.00 47 1012.7
20260901000835 96 123 3.0 7.0 0.00 0.00 0.00 47 1012.8
20260901000321 96 130 4.0 8.0 0.00 0.00 0.00 47 1012.8
20260831235829 96 128 4.0 8.0 0.00 0.00 0.00 47 1012.7
20260831235340 97 116 1.0 8.0 0.00 0.00 0.00 47 1012.7
20260831234825 97 128 4.0 9.0 0.00 0.00 0.00 47 1012.7
20260831234328 97 103 5.0 10.0 0.00 0.00 0.00 47 1012.6
20260831233822 97 138 5.0 10.0 0.00 0.00 0.00 47 1012.6
20260831233328 97 92 4.0 12.0 0.00 0.00 0.00 47 1012.7
20260831232840 98 123 7.0 12.0 0.00 0.00 0.00 47 1012.5
20260831232323 98 107 4.0 8.0 0.00 0.00 0.00 48 1012.5
20260831231826 98 169 4.0 8.0 0.00 0.00 0.00 48 1012.7
20260831231337 97 155 4.0 8.0 0.00 0.00 0.00 48 1012.6